{"data":{"norad_id":53827,"intl_designator":"2022-114K","name":"STARLINK-4764","alt_names":[],"object_type":"PAYLOAD","status":"ACTIVE","operator":null,"country":"US","launch_date":"2022-09-19","launch_site_code":"AFETR","launch_vehicle":null,"mission":null,"orbit_class":"UNKNOWN","rcs_meters":null,"size_class":null,"mass_kg":null,"dimensions":null,"purposes":["comms"],"wikipedia_slug":null,"has_3d_model":false,"image_url":null,"decayed_at":null,"tle_current":{"epoch":"2026-05-24T18:05:58.923744Z","epoch_age_seconds":106779,"freshness":"FRESH","line1":"1 53827U 22114K   26144.75415421  .00000483  00000+0  48455-4 0  9995","line2":"2 53827  53.2152 322.7166 0001237  89.7489 270.3645 15.08841490204317","mean_motion":15.0884149,"eccentricity":0.0001237,"inclination_deg":53.2152,"raan_deg":322.7166,"arg_perigee_deg":89.7489,"mean_anomaly_deg":270.3645,"bstar":4.8455e-5,"rev_number":20431,"period_min":95.437460431977,"perigee_km":538.88309339319,"apogee_km":540.59457587468,"semimajor_km":6917.8758346339,"source":"CELESTRAK","updated_at":"2026-05-25T13:38:17.570850Z"}}}